This is the latest recevied weather packets stored in our database for station/object DR0T. If no packets are shown the sender has not sent any weather packets the latest 10 day(s).
| Time | Temp. | Humidity | Pressure | Rain* | Wind** | Luminosity | Snow |
|---|---|---|---|---|---|---|---|
| 1778263355 | 12.22° C | 72% | 1017.4 hPa | 0 mm | - | - | - |
| 1778263049 | 12.78° C | 72% | 1017.3 hPa | 0 mm | - | - | - |
| 1778262752 | 12.78° C | 71% | 1017.3 hPa | 0 mm | - | - | - |
| 1778262447 | 12.78° C | 71% | 1017.1 hPa | 0 mm | - | - | - |
| 1778262145 | 12.78° C | 70% | 1017.2 hPa | 0 mm | - | - | - |
| 1778261849 | 13.33° C | 69% | 1017.1 hPa | 0 mm | - | - | - |
| 1778261547 | 13.33° C | 69% | 1017.2 hPa | 0 mm | - | - | - |
| 1778261241 | 13.89° C | 66% | 1017.2 hPa | 0 mm | - | - | - |
| 1778260942 | 13.89° C | 67% | 1017.1 hPa | 0 mm | - | - | - |
| 1778260639 | 13.89° C | 68% | 1017.1 hPa | 0 mm | - | - | - |
| 1778260338 | 14.44° C | 67% | 1017 hPa | 0 mm | - | - | - |
| 1778260037 | 14.44° C | 65% | 1016.9 hPa | 0 mm | - | - | - |
| 1778259736 | 14.44° C | 66% | 1017 hPa | 0 mm | - | - | - |
| 1778259455 | 14.44° C | 67% | 1016.9 hPa | 0 mm | - | - | - |
| 1778259155 | 15° C | 64% | 1016.8 hPa | 0 mm | - | - | - |
| 1778258854 | 14.44° C | 64% | 1016.9 hPa | 0 mm | - | - | - |
| 1778258551 | 14.44° C | 64% | 1016.9 hPa | 0 mm | - | - | - |
| 1778258250 | 15° C | 64% | 1016.8 hPa | 0 mm | - | - | - |
| 1778257949 | 15° C | 63% | 1016.8 hPa | 0 mm | - | - | - |
| 1778257647 | 15° C | 65% | 1017 hPa | 0 mm | - | - | - |
| 1778257346 | 15.56° C | 64% | 1016.9 hPa | 0 mm | - | - | - |
| 1778257047 | 15.56° C | 61% | 1017 hPa | 0 mm | - | - | - |
| 1778256743 | 15° C | 61% | 1016.9 hPa | 0 mm | - | - | - |
| 1778256444 | 15° C | 62% | 1017.1 hPa | 0 mm | - | - | - |
| 1778256141 | 15° C | 62% | 1017 hPa | 0 mm | - | - | - |
* Rain latest hour (hover to see other rain measurements)
** Current wind speed in m/s (hover to see current wind gust speed)